Location: Amherst
(42.3800°N, 72.5240°W)
Time: 11:39:58
(UTC-04:00)

ISS - Pass Details

Date: 18 May 2021
Orbit: 417 x 422 km, 51.6° (Epoch: 14 June)

Event Time Altitude Azimuth Distance (km) Brightness Sun altitude
Rises 21:28:08 0° 260° (W) 2,356 0.6 -12.8°
Reaches altitude 10° 21:30:21 10° 270° (W) 1,496 -0.3 -13.1°
Maximum altitude 21:33:26 33° 336° (NNW) 733 -1.9 -13.5°
Drops below altitude 10° 21:36:31 10° 43° (NE) 1,504 -0.9 -14.0°
Sets 21:38:46 0° 53° (NE) 2,371 0.0 -14.3°
